Regional Weather Roundup
Issued by NWS

Home | Current Version | Previous Version | Text Only | Print | Product List | Glossary Off
Versions: 1 2 3 4 5 6 7 8 9 10 11 12 13 14 15 16 17 18 19 20 21 22 23 24 25 26 27

000
ASUS45 KBOU 240206
RWRCO

WEATHER ROUNDUP FOR COLORADO
NATIONAL WEATHER SERVICE DENVER/BOULDER CO
800 PM MDT WED APR 23 2014

NOTE: "FAIR" INDICATES FEW OR NO CLOUDS BELOW 12000 FEET WITH NO
SIGNIFICANT WEATHER AND/OR OBSTRUCTIONS TO VISIBILITY.

COZ001>005-013-030-031-240300-
...NORTHWEST COLORADO...

CITY           SKY/WX    TMP DP  RH WIND       PRES   REMARKS
CRAIG          MOCLDY    42  13  30 NW15      29.98R
HAYDEN         MOCLDY    41  12  30 NW18G26   29.98R
MEEKER         CLOUDY    46  12  25 NW14      29.97R
MOUNT WERNER   CLOUDY    27  19  74 W22G30    29.97S WCI  12
STEAMBOAT SPGS MOCLDY    41   8  25 W22G28    29.94R
WALDEN         CLOUDY    34  14  44 W14       29.93R WCI  24
$$

COZ006>008-011-240300-
...WEST CENTRAL VALLEYS...

CITY           SKY/WX    TMP DP  RH WIND       PRES   REMARKS
GRAND JUNCTION PTCLDY    51   6  16 W8        29.92R
MONTROSE       CLOUDY    52   8  17 NW23      29.94R
EAGLE          CLOUDY    46  16  29 NW12G20   29.93R
RIFLE          MOCLDY    50  14  23 NW22G36   29.93R
DELTA          NOT AVBL
NUCLA          NOT AVBL
$$

COZ017>023-064>068-240300-
...SOUTHWEST COLORADO...

CITY           SKY/WX    TMP DP  RH WIND       PRES   REMARKS
DURANGO        MOCLDY    49   8  19 W18       29.91R
CORTEZ         MOCLDY    51  16  24 N12       29.96R
PAGOSA SPRINGS MOCLDY    47   9  21 W10       29.93R
TELLURIDE      MOCLDY    36  16  44 W12G17    30.02R
WOLF CREEK PAS PTCLDY    23  10  58 SW31G40   29.99R WCI   5
$$

COZ009-010-012-014-032>034-037-058>063-240300-
...CENTRAL COLORADO...

CITY           SKY/WX    TMP DP  RH WIND       PRES   REMARKS
ASPEN          CLOUDY    42  19  39 NW13      29.93R
BUENA VISTA    CLOUDY    42  16  35 W20G26    29.86S
COPPER MTN     CLOUDY    27  18  69 W24G37    29.97R WCI  12
BERTHOUD PASS  HVY SNOW  19   9  63 NW33      29.93S VSB<1/4 WCI   0
COTTONWOOD PAS CLOUDY    36  16  44 W29G46    29.89R
GUNNISON       MOCLDY    43  19  39 W8        29.96R
KREMMLING      CLOUDY    37  19  48 NW13      29.94R
LEADVILLE      CLOUDY    29  20  69 NW7       29.94S WCI  22
MONARCH PASS   SNOW      23  19  86 W38G47    30.05R VSB<1/4 WCI   4
SALIDA         CLOUDY    46  21  37 W18G25    29.93R
SUNLIGHT       MOCLDY    30  18  59 SW6       30.02R WCI  24
WILKERSON PASS CLOUDY    30  18  59 W13G21    29.94R WCI  20
$$

COZ069>075-240300-
...SAN LUIS VALLEY/SANGRE DE CRISTO MOUNTAINS...

CITY           SKY/WX    TMP DP  RH WIND       PRES   REMARKS
ALAMOSA        CLOUDY    48  15  26 W12       29.85R
LA VETA PASS   LGT SNOW  32  28  86 SW14G21   29.91R WCI  22
SAGUACHE       MOCLDY    43  23  45 NW14G26   29.90R
$$

COZ035-036-038>040-240300-
...NORTHERN COLORADO FRONT RANGE...

CITY           SKY/WX    TMP DP  RH WIND       PRES   REMARKS
DENVER INTL AP RAIN      43  40  89 E13G29    29.79R
DMNS CITY PARK   N/A     44  39  82 NE15      29.79R
AURORA         TSTM      41  39  93 NE15G24   29.80R FOG
FRONT RANGE AP NOT AVBL
ERIE MUNI ARPT LGT RAIN  46  40  80 E22G28    29.78R
BOULDER MUN AP LGT RAIN  46  37  71 CALM      29.79R
CENTENNIAL     LGT RAIN  41  38  89 NE15G28   29.81R FOG
BROOMFIELD     LGT RAIN  46  39  76 NE15G23   29.80R
FORT COLLINS   CLOUDY    52  34  50 CALM      29.79R
LONGMONT       NOT AVBL
$$

COZ041-046-047-076>085-087-088-240300-
...PIKES PEAK/PALMER DIVIDE AND SOUTHERN FOOTHILLS...

CITY           SKY/WX    TMP DP  RH WIND       PRES   REMARKS
COLO. SPRINGS  CLOUDY    51  35  54 N28G39    29.74R
A. F. ACADEMY  CLOUDY    46  37  70 N21G28    29.78R
ELLICOTT       NOT AVBL
FALCON         MIX PCPN  43  38  80 NE21G28   29.78R
FORT CARSON    CLOUDY    53  34  48 N23G32    29.72R
LIMON          CLOUDY    43  37  79 N37G52    29.71R
MONUMENT HILL  RAIN      36  34  93 N22G28    29.83R
TRINIDAD       MOCLDY    59  23  25 W26G36    29.73R
$$

COZ042>045-048>051-090-091-240300-
...NORTHEAST COLORADO...

CITY           SKY/WX    TMP DP  RH WIND       PRES   REMARKS
GREELEY ARPT   CLOUDY    55  21  26 NE10G29   29.74R
AKRON          LGT RAIN  43  37  79 N37G45    29.76R
BURLINGTON     CLOUDY    58  28  32 N33G43    29.66R
WRAY           MOCLDY    57  29  34 NW37G47   29.68F
STERLING       NOT AVBL
HOLYOKE        NOT AVBL
FORT MORGAN    NOT AVBL
$$

COZ086-089-092>099-240300-
...SOUTHEAST COLORADO...

CITY           SKY/WX    TMP DP  RH WIND       PRES   REMARKS
PUEBLO         CLOUDY    65  22  19 NW28G38   29.63R
LA JUNTA       MOCLDY    72  20  14 W30G38    29.58R HAZE
LAMAR          CLOUDY    73  20  13 W14       29.49R
SPRINGFIELD      N/A     71  19  14 W12       29.56R
$$



USA.gov is the U.S. government's official web portal to all federal, state and local government web resources and services.